Weather History for Lexington, NE

Change the Weather History Date:

Friday, July 5, 2013

  Actual Average Record
Temperature  
Mean Temperature 78 °F -  
Max Temperature 93 °F 84 °F 97 °F (2012)
Min Temperature 63 °F 60 °F 57 °F (1997)
Cooling Degree Days 13    
Growing Degree Days 28 (Base 50)    
Moisture  
Dew Point 55 °F    
Average Humidity 45    
Maximum Humidity 64    
Minimum Humidity 29    
Precipitation  
Precipitation 0.00 in - - ()
Sea Level Pressure  
Sea Level Pressure 29.83 in    
Wind  
Wind Speed 11 mph (SSE)    
Max Wind Speed 20 mph    
Max Gust Speed 28 mph    
Visibility 10 miles    
Events Rain    
Averages and records for this station are not official NWS values.
T = Trace of Precipitation, MM = Missing Value Source: NWS Daily Summary

Daily Weather History Graph

Daily Weather History Graph

Search for Another Location

Airport:

Trip Planner

Search our weather history database for the weather conditions in past years. The results will help you decide how hot, cold, wet, or windy it might be!

Date:

Astronomy

Jul. 05, 2013 Rise Set
Actual Time 6:13 AM CDT 9:13 PM CDT
Civil Twilight 5:40 AM CDT 9:46 PM CDT
Nautical Twilight 4:58 AM CDT 10:28 PM CDT
Astronomical Twilight 4:09 AM CDT 11:17 PM CDT
Moon 4:14 AM CDT (7/5) 7:09 PM CDT (7/5)
Length of Visible Light 16h 05m
Length of Day
14h 59m
Waning Crescent, 6% of the Moon is Illuminated
Jul 5
Waning Crescent
Jul 8
New
Jul 15
First Quarter
Jul 22
Full
Jul 29
Last Quarter

Hourly Weather History & Observations

Time (CDT) Temp. Heat Index Dew Point Humidity Pressure Visibility Wind Dir Wind Speed Gust Speed Precip Events Conditions
12:15 AM 72.9 °F - 48.6 °F 42% 29.87 in 10.0 mi SSE 10.4 mph - N/A   Clear
12:35 AM 73.0 °F - 48.7 °F 42% 29.87 in 10.0 mi SSE 10.4 mph - N/A   Clear
12:55 AM 72.7 °F - 49.1 °F 43% 29.88 in 10.0 mi SSE 11.5 mph - N/A   Clear
1:15 AM 73.0 °F - 49.1 °F 43% 29.88 in 10.0 mi SSE 11.5 mph - N/A   Clear
1:35 AM 72.3 °F - 49.1 °F 44% 29.88 in 10.0 mi SSE 10.4 mph 16.1 mph N/A   Clear
1:55 AM 72.3 °F - 48.7 °F 43% 29.87 in 10.0 mi South 10.4 mph - N/A   Clear
2:15 AM 71.4 °F - 49.1 °F 45% 29.88 in 10.0 mi SSE 10.4 mph - N/A   Clear
2:35 AM 71.1 °F - 49.1 °F 46% 29.88 in 10.0 mi SE 9.2 mph - N/A   Clear
2:55 AM 69.6 °F - 50.0 °F 50% 29.87 in 10.0 mi SSE 10.4 mph - N/A   Clear
3:15 AM 68.5 °F - 50.4 °F 52% 29.87 in 10.0 mi SSE 9.2 mph - N/A   Clear
3:35 AM 67.1 °F - 50.9 °F 56% 29.86 in 10.0 mi SSE 8.1 mph - N/A   Clear
3:55 AM 66.6 °F - 51.3 °F 58% 29.86 in 10.0 mi South 9.2 mph - N/A   Clear
4:15 AM 66.7 °F - 50.9 °F 57% 29.85 in 10.0 mi South 10.4 mph - N/A   Clear
4:35 AM 67.5 °F - 50.5 °F 55% 29.85 in 10.0 mi SSE 9.2 mph - N/A   Clear
4:55 AM 67.5 °F - 50.7 °F 55% 29.85 in 10.0 mi SE 9.2 mph - N/A   Clear
5:15 AM 67.6 °F - 50.5 °F 54% 29.85 in 10.0 mi SE 9.2 mph - N/A   Clear
5:35 AM 66.0 °F - 50.9 °F 58% 29.85 in 10.0 mi SSE 5.8 mph - N/A   Clear
5:55 AM 64.4 °F - 50.9 °F 62% 29.85 in 10.0 mi ESE 4.6 mph - N/A   Clear
6:15 AM 63.7 °F - 51.1 °F 64% 29.85 in 10.0 mi ESE 5.8 mph - N/A   Clear
6:35 AM 65.1 °F - 51.3 °F 61% 29.85 in 10.0 mi ESE 6.9 mph - N/A   Clear
6:55 AM 66.2 °F - 51.4 °F 59% 29.85 in 10.0 mi ESE 5.8 mph - N/A   Clear
7:15 AM 66.7 °F - 51.6 °F 58% 29.85 in 10.0 mi SE 5.8 mph - N/A   Clear
7:35 AM 67.6 °F - 51.8 °F 57% 29.85 in 10.0 mi SSE 6.9 mph - N/A   Clear
7:55 AM 68.4 °F - 51.8 °F 55% 29.85 in 10.0 mi SSE 6.9 mph - N/A   Clear
8:15 AM 69.1 °F - 52.9 °F 56% 29.85 in 10.0 mi South 6.9 mph - N/A   Clear
8:35 AM 69.8 °F - 52.7 °F 54% 29.86 in 10.0 mi South 9.2 mph - N/A   Clear
8:55 AM 69.8 °F - 53.6 °F 56% 29.86 in 10.0 mi SSE 8.1 mph - N/A   Clear
9:15 AM 71.4 °F - 54.3 °F 55% 29.86 in 10.0 mi South 8.1 mph - N/A   Clear
9:35 AM 73.6 °F - 54.5 °F 51% 29.86 in 10.0 mi SSE 9.2 mph - N/A   Clear
9:55 AM 75.0 °F - 54.3 °F 48% 29.86 in 10.0 mi South 10.4 mph - N/A   Clear
10:15 AM 75.4 °F - 54.7 °F 48% 29.85 in 10.0 mi SSE 10.4 mph - N/A   Clear
10:35 AM 77.9 °F - 55.0 °F 45% 29.85 in 10.0 mi South 12.7 mph - N/A   Clear
10:55 AM 77.9 °F - 55.4 °F 46% 29.85 in 10.0 mi SSE 11.5 mph - N/A   Clear
11:15 AM 81.0 °F 80.7 °F 55.4 °F 41% 29.85 in 10.0 mi SSE 12.7 mph - N/A   Clear
11:35 AM 82.8 °F 82.0 °F 55.4 °F 39% 29.85 in 7.0 mi SSE 10.4 mph 18.4 mph N/A   Clear
11:55 AM 83.5 °F 82.9 °F 57.2 °F 41% 29.84 in 10.0 mi SE 9.2 mph - N/A   Clear
12:15 PM 84.4 °F 83.5 °F 57.2 °F 39% 29.83 in 10.0 mi SE 15.0 mph - N/A   Clear
12:35 PM 86.0 °F 84.9 °F 56.7 °F 37% 29.83 in 10.0 mi SSE 15.0 mph - N/A   Clear
12:55 PM 88.3 °F 86.9 °F 56.8 °F 34% 29.83 in 10.0 mi SSE 15.0 mph 18.4 mph N/A   Clear
1:15 PM 88.3 °F 86.9 °F 56.5 °F 34% 29.83 in 10.0 mi SSE 11.5 mph - N/A   Clear
1:35 PM 89.4 °F 88.2 °F 57.2 °F 34% 29.82 in 10.0 mi SSE 12.7 mph 19.6 mph N/A   Clear
1:55 PM 90.3 °F 88.8 °F 57.0 °F 32% 29.82 in 10.0 mi SSE 17.3 mph 21.9 mph N/A   Clear
2:15 PM 91.2 °F 89.6 °F 56.5 °F 31% 29.82 in 10.0 mi SE 16.1 mph 21.9 mph N/A   Clear
2:35 PM 91.0 °F 89.4 °F 56.7 °F 31% 29.82 in 10.0 mi SSE 19.6 mph 23.0 mph N/A   Clear
2:55 PM 92.5 °F 90.7 °F 55.9 °F 29% 29.81 in 10.0 mi SSE 17.3 mph 26.5 mph N/A   Clear
3:15 PM 91.4 °F 89.6 °F 55.6 °F 30% 29.81 in 10.0 mi SSE 15.0 mph 24.2 mph N/A   Clear
3:35 PM 91.4 °F 89.6 °F 55.8 °F 30% 29.81 in 10.0 mi SE 18.4 mph 25.3 mph N/A   Clear
3:55 PM 93.0 °F 91.4 °F 55.9 °F 29% 29.80 in 10.0 mi SSE 17.3 mph - N/A   Clear
4:15 PM 91.2 °F 89.1 °F 55.0 °F 29% 29.80 in 10.0 mi SSE 17.3 mph 23.0 mph N/A   Clear
4:35 PM 90.5 °F 88.5 °F 55.0 °F 30% 29.80 in 10.0 mi SE 13.8 mph 20.7 mph N/A   Clear
4:55 PM 89.8 °F 88.1 °F 56.1 °F 32% 29.79 in 10.0 mi SE 13.8 mph 18.4 mph N/A   Clear
5:15 PM 89.6 °F 87.9 °F 56.1 °F 32% 29.78 in 10.0 mi SE 13.8 mph 18.4 mph N/A   Clear
5:35 PM 91.4 °F 89.6 °F 55.9 °F 30% 29.78 in 10.0 mi SE 16.1 mph - N/A   Clear
5:55 PM 89.6 °F 87.7 °F 55.6 °F 31% 29.78 in 10.0 mi SE 17.3 mph - N/A   Clear
6:15 PM 88.5 °F 86.9 °F 55.6 °F 33% 29.78 in 10.0 mi SE 15.0 mph - N/A   Clear
6:35 PM 87.4 °F 85.9 °F 55.8 °F 34% 29.78 in 10.0 mi SE 11.5 mph 20.7 mph N/A   Clear
6:55 PM 86.4 °F 85.4 °F 57.7 °F 38% 29.78 in 10.0 mi SE 15.0 mph 18.4 mph N/A   Clear
7:15 PM 86.0 °F 85.4 °F 59.2 °F 40% 29.78 in 10.0 mi SE 13.8 mph - N/A   Clear
7:35 PM 84.9 °F 84.4 °F 58.6 °F 41% 29.78 in 10.0 mi SE 13.8 mph 19.6 mph N/A   Clear
7:55 PM 84.6 °F 83.9 °F 57.6 °F 40% 29.77 in 10.0 mi SE 16.1 mph - N/A   Scattered Clouds
8:15 PM 84.4 °F 83.7 °F 57.4 °F 40% 29.77 in 10.0 mi SE 17.3 mph 21.9 mph N/A   Clear
8:35 PM 83.8 °F 83.3 °F 57.7 °F 41% 29.78 in 10.0 mi SE 13.8 mph - N/A   Scattered Clouds
8:55 PM 83.3 °F 82.9 °F 58.1 °F 42% 29.78 in 10.0 mi SE 16.1 mph 21.9 mph N/A   Scattered Clouds
9:15 PM 82.6 °F 82.5 °F 58.6 °F 44% 29.78 in 10.0 mi SE 12.7 mph - N/A   Clear
9:35 PM 82.0 °F 82.4 °F 59.7 °F 47% 29.79 in 10.0 mi SE 17.3 mph 21.9 mph N/A Rain Rain
9:55 PM 82.0 °F 82.2 °F 59.2 °F 46% 29.81 in 10.0 mi SSE 16.1 mph - N/A   Mostly Cloudy
10:15 PM 78.8 °F - 61.9 °F 56% 29.81 in 10.0 mi SSE 16.1 mph 26.5 mph N/A Rain Light Rain
10:35 PM 78.1 °F - 61.5 °F 57% 29.81 in 10.0 mi SSE 19.6 mph - N/A Rain Light Rain
10:55 PM 79.9 °F - 60.1 °F 51% 29.82 in 10.0 mi SSE 16.1 mph 20.7 mph N/A   Clear
11:15 PM 79.2 °F - 60.1 °F 52% 29.82 in 10.0 mi SE 13.8 mph 20.7 mph N/A   Scattered Clouds
11:35 PM 79.7 °F - 59.2 °F 49% 29.82 in 10.0 mi SSE 19.6 mph 27.6 mph N/A   Mostly Cloudy
11:55 PM 79.0 °F - 59.2 °F 51% 29.82 in 10.0 mi SE 17.3 mph 24.2 mph N/A   Scattered Clouds